Regional Weather Roundup
Issued by NWS

Home | Current Version | Previous Version | Graphics & Text | Print | Product List | Glossary On
Versions: 1 2 3 4 5 6 7 8 9 10 11 12 13 14 15 16 17 18 19 20 21 22 23 24 25 26 27 28 29 30 31 32 33 34 35 36 37 38 39 40 41 42 43 44 45 46 47 48 49 50
000
ASUS43 KMKX 240759
RWRWI

WISCONSIN REGIONAL WEATHER ROUNDUP
NATIONAL WEATHER SERVICE MILWAUKEE/SULLIVAN WI
300 AM CDT THU JUL 24 2014

NOTE: "FAIR" INDICATES FEW OR NO CLOUDS BELOW 12,000 FEET WITH NO
SIGNIFICANT WEATHER AND/OR OBSTRUCTIONS TO VISIBILITY.

WIZ001-002-006>008-014>016-023>028-240900-
NORTHWEST WISCONSIN

CITY           SKY/WX    TMP DP  RH WIND       PRES   REMARKS
SUPERIOR ARPT  MOCLDY    49  49  99 CALM      30.19R FOG
ASHLAND        MOCLDY    51  51 100 W3        30.19S
HAYWARD        MOCLDY    51  49  92 CALM      30.20R
SIREN          CLOUDY    57  55  93 CALM      30.18S
RICE LAKE      CLOUDY    57  55  92 CALM      30.20S
LADYSMITH      CLEAR     51  49  91 CALM      30.21R
EAU CLAIRE     NOT AVBL
MENOMONIE      MOSUNNY   59  57  92 CALM      30.18F
NEW RICHMOND   PTCLDY    60  57  90 E3        30.18S
OSCEOLA        PTCLDY    57  56  97 CALM      30.20S
$$

WIZ003>005-009-010-017-018-240900-
NORTH CENTRAL WISCONSIN

CITY           SKY/WX    TMP DP  RH WIND       PRES   REMARKS
WOODRUFF       CLEAR     47  40  76 CALM      30.20F
RHINELANDER    FOG       46  46 100 CALM      30.21F VSB 1/2
EAGLE RIVER    PTCLDY    44  44 100 CALM      30.20S FOG
LAND O LAKES   CLEAR     43  43  99 CALM      30.22S
PHILLIPS       CLEAR     49  49  99 CALM      30.20R
TOMAHAWK       CLEAR     44  43  96 CALM      30.21S FOG
MEDFORD        CLEAR     51  50  96 E6        30.18F
MERRILL        CLEAR     50  50 100 CALM      30.19F
$$

WIZ029-030-035-036-043>047-240900-
CENTRAL WISCONSIN

CITY           SKY/WX    TMP DP  RH WIND       PRES   REMARKS
WAUSAU         CLEAR     56  52  86 SE6       30.18S
MOSINEE        PTCLDY    52  52 100 SE3       30.20S
MARSHFIELD     CLEAR     57  54  89 SE6       30.18S
STEVENS POINT  CLOUDY    54  51  89 CALM      30.20R
WAUPACA        PTCLDY    55  53  93 CALM      30.19S
WAUTOMA        NOT AVBL
WISC RAPIDS    PTCLDY    56  52  86 E3        30.20R
CAMP DOUGLAS   NOT AVBL
$$

WIZ011>013-019>022-031-037>040-048>050-240900-
NORTHEAST WISCONSIN

CITY           SKY/WX    TMP DP  RH WIND       PRES   REMARKS
ANTIGO         CLEAR     51  49  90 CALM      30.20S
STURGEON BAY   CLEAR     50  45  81 CALM      30.18S
GREEN BAY      MOCLDY    54  51  90 W3        30.18S
MANITOWOC      NOT AVBL
APPLETON       CLEAR     54  45  71 CALM      30.19S
CLINTONVILLE   PTCLDY    54  52  94 CALM      30.19S
OSHKOSH        PTCLDY    54  50  86 CALM      30.17S
$$

WIZ032>034-041-042-053>061-240900-
SOUTHWEST WISCONSIN

CITY           SKY/WX    TMP DP  RH WIND       PRES   REMARKS
LA CROSSE      PTCLDY    62  58  86 CALM      30.16R
SPARTA         CLEAR     51  49  93 CALM      30.18R
VIROQUA        FAIR      60  59  96 SE6       30.18R
BOSCOBEL       CLEAR     59  56  89 CALM      30.18R
PRAIRIE DU CHI MOCLDY    62  58  87 E3        30.17R
PLATTEVILLE    FAIR      60  56  85 E6        30.19S
$$

WIZ056-057-062-063-064-067-068-240900-
SOUTH CENTRAL WISCONSIN

CITY           SKY/WX    TMP DP  RH WIND       PRES   REMARKS
BARABOO/DELLS  PTCLDY    57  48  72 CALM      30.18S
LONE ROCK      NOT AVBL
WATERTOWN      CLEAR     51  50  95 CALM      30.17S
MADISON        CLEAR     54  51  90 CALM      30.18S
MIDDLETON      FAIR      55  51  85 CALM      30.19R
MONROE         PTCLDY    55  52  88 CALM      30.17F
JANESVILLE     CLEAR     52  50  93 NW5       30.17R
$$

WIZ051-052-058>065-066-070>072-240900-
SOUTHEAST WISCONSIN

CITY           SKY/WX    TMP DP  RH WIND       PRES   REMARKS
MILWAUKEE      CLEAR     57  50  77 NW3       30.16S
WAUKESHA       CLEAR     50  46  87 CALM      30.18S
MILWAUKEE/TIMM CLEAR     52  46  82 CALM      30.18S
RACINE         CLEAR     54  51  90 NW5       30.17S
BURLINGTON     CLEAR     48  48  99 CALM      30.17S
KENOSHA        CLEAR     54  51  90 NW3       30.16S
FOND DU LAC    CLEAR     52  48  86 CALM      30.18S
SHEBOYGAN      CLEAR     50  48  93 CALM      30.17S
WEST BEND      CLEAR     48  45  87 W3        30.17S
JUNEAU         MOCLDY    53  49  85 CALM      30.19S
$$

LSZ147-162-240900-
LAKE SUPERIOR

STATION/POSITION TIME  TEMP    WIND        PRES    WAVE
                       AIR SEA DIR/SP/G            HT/PER
                 (UTC) (F)     (DEG/KT/KT) (MB)    (FT/S)
$$

LMZ867-665-643>646-240900-
LAKE MICHIGAN

STATION/POSITION TIME  TEMP    WIND        PRES    WAVE
                       AIR SEA DIR/SP/G            HT/PER
                 (UTC) (F)     (DEG/KT/KT) (MB)    (FT/S)
$$

TC  - TEMPERATURE IN CELSIUS
VSB - VISIBILITY IN STATUTE MILES
WCI - WIND CHILL INDEX
HX  - HEAT INDEX




USA.gov is the U.S. government's official web portal to all federal, state and local government web resources and services.